User: anonymous   Login
Location: Sewell
(39.7660°N, 75.1450°W)
Time: 12:09:43
(UTC-04:00)
Language:

ISS - Orbit

View from above orbital plane
View from above orbital plane
View from above satellite
View from above satellite

Ground track
Ground track

The orbit data is extracted from the following two-line orbital elements,

1 25544U 98067A   15244.35783252 -.00000699  00000-0 -30909-5 0  9993
2 25544  51.6450  63.6986 0001845 169.1065 260.4644 15.55270863959895
Epoch (UTC): 01 September 2015 08:35:16
Eccentricity: 0.0001845
inclination: 51.6450°
perigee height: 400 km
apogee height: 402 km
right ascension of ascending node: 63.6986°
argument of perigee: 169.1065°
revolutions per day: 15.55270863
mean anomaly at epoch: 260.4644°
orbit number at epoch: 95989

The dashed part of the orbit path shows where the satellite is in the earth's shadow,  

DLR